When you browse on this site, cookies collect data to enhance your experience and personalize the content and advertising you see.
Visit our Privacy Policy to learn more. By continuing to use the site, you agree to this use of cookies and data.
  • In Romania
  • List of Countries
  • For 7 days
  • Water Temperature
  • Satellite Maps
  • Weather Map
  • Weather Widgets
  • user-avatar
    Login

    Hourly Weather Shumen

    Today, 26 March, Tuesday

    Time Temperature Precipitation Wind Pressure Humidity
    00:00 +9°C° 0 mm 2 mps 725 mmHg 58%
    01:00 +9°C° 0 mm 1 mps 725 mmHg 58%
    02:00 +9°C° 0 mm 1 mps 725 mmHg 60%
    03:00 +9°C° 0 mm 1 mps 725 mmHg 60%
    04:00 +9°C° 0 mm 1 mps 725 mmHg 60%
    05:00 +8°C° 0 mm 1 mps 725 mmHg 59%
    06:00 +9°C° 0 mm 1 mps 725 mmHg 58%
    07:00 +10°C° 0 mm 1 mps 726 mmHg 57%
    08:00 +10°C° 0 mm 2 mps 727 mmHg 56%
    09:00 +11°C° 0 mm 3 mps 727 mmHg 57%
    10:00 +12°C° 0 mm 4 mps 727 mmHg 57%
    11:00 +13°C° 0 mm 4 mps 728 mmHg 58%
    12:00 +13°C° 0 mm 4 mps 728 mmHg 59%
    13:00 +13°C° 0 mm 4 mps 728 mmHg 60%
    14:00 +13°C° 0 mm 4 mps 728 mmHg 61%
    15:00 +12°C° 0 mm 5 mps 729 mmHg 64%
    16:00 +9°C° 0 mm 6 mps 729 mmHg 67%
    17:00 +8°C° 0 mm 6 mps 729 mmHg 70%
    18:00 +7°C° 0.1 mm 5 mps 729 mmHg 72%
    19:00 +7°C° 0.1 mm 4 mps 729 mmHg 74%
    20:00 +7°C° 0.1 mm 3 mps 730 mmHg 76%
    21:00 +7°C° 0.1 mm 2 mps 730 mmHg 77%
    22:00 +7°C° 0.1 mm 2 mps 730 mmHg 78%
    23:00 +8°C° 0.1 mm 1 mps 731 mmHg 79%

    Tomorrow, 27 March, Wednesday

    Time Temperature Precipitation Wind Pressure Humidity
    00:00 +7°C° 0 mm 1 mps 731 mmHg 81%
    01:00 +7°C° 0 mm 1 mps 731 mmHg 83%
    02:00 +7°C° 0 mm 1 mps 731 mmHg 85%
    03:00 +6°C° 0 mm 1 mps 731 mmHg 86%
    04:00 +6°C° 0 mm 1 mps 731 mmHg 88%
    05:00 +6°C° 0 mm 1 mps 731 mmHg 89%
    06:00 +5°C° 0 mm 2 mps 732 mmHg 83%
    07:00 +5°C° 0 mm 3 mps 732 mmHg 77%
    08:00 +5°C° 0 mm 3 mps 732 mmHg 71%
    09:00 +6°C° 0 mm 4 mps 733 mmHg 70%
    10:00 +7°C° 0 mm 4 mps 733 mmHg 69%
    11:00 +7°C° 0 mm 4 mps 733 mmHg 68%
    12:00 +8°C° 0.1 mm 4 mps 733 mmHg 64%
    13:00 +10°C° 0.1 mm 4 mps 734 mmHg 61%
    14:00 +11°C° 0.1 mm 4 mps 734 mmHg 57%
    15:00 +11°C° 0.4 mm 3 mps 734 mmHg 60%
    16:00 +10°C° 0.4 mm 3 mps 734 mmHg 62%
    17:00 +9°C° 0.4 mm 3 mps 734 mmHg 64%
    18:00 +9°C° 0.2 mm 3 mps 734 mmHg 69%
    19:00 +8°C° 0.2 mm 2 mps 735 mmHg 73%
    20:00 +7°C° 0.2 mm 2 mps 736 mmHg 77%
    21:00 +7°C° 0.1 mm 2 mps 736 mmHg 78%
    22:00 +6°C° 0.1 mm 2 mps 737 mmHg 78%
    23:00 +6°C° 0.1 mm 2 mps 737 mmHg 79%

    Day after tomorrow, 28 March, Thursday

    Time Temperature Precipitation Wind Pressure Humidity
    00:00 +5°C° 0 mm 2 mps 737 mmHg 75%
    01:00 +3°C° 0 mm 3 mps 738 mmHg 71%
    02:00 +2°C° 0 mm 3 mps 738 mmHg 66%
    03:00 +3°C° 0 mm 2 mps 738 mmHg 65%
    04:00 +2°C° 0 mm 2 mps 738 mmHg 63%
    05:00 +2°C° 0 mm 1 mps 738 mmHg 62%
    06:00 +2°C° 0 mm 2 mps 738 mmHg 56%
    07:00 +3°C° 0 mm 2 mps 738 mmHg 50%
    08:00 +2°C° 0 mm 3 mps 739 mmHg 44%
    09:00 +4°C° 0 mm 3 mps 739 mmHg 42%
    10:00 +5°C° 0 mm 4 mps 739 mmHg 40%
    11:00 +6°C° 0 mm 4 mps 739 mmHg 37%
    12:00 +6°C° 0 mm 4 mps 739 mmHg 37%
    13:00 +7°C° 0 mm 5 mps 739 mmHg 36%
    14:00 +8°C° 0 mm 5 mps 739 mmHg 36%
    15:00 +7°C° 0 mm 5 mps 738 mmHg 37%
    16:00 +7°C° 0 mm 5 mps 738 mmHg 39%
    17:00 +6°C° 0 mm 5 mps 738 mmHg 40%
    18:00 +5°C° 0 mm 4 mps 738 mmHg 44%
    19:00 +4°C° 0 mm 3 mps 738 mmHg 48%
    20:00 +4°C° 0 mm 2 mps 739 mmHg 52%
    21:00 +4°C° 0 mm 2 mps 739 mmHg 51%
    22:00 +4°C° 0 mm 2 mps 739 mmHg 50%
    23:00 +2°C° 0 mm 3 mps 740 mmHg 48%

    29 March, Friday

    Time Temperature Precipitation Wind Pressure Humidity
    00:00 +2°C° 0 mm 3 mps 740 mmHg 48%
    01:00 +1°C° 0 mm 3 mps 740 mmHg 48%
    02:00 0°C° 0 mm 3 mps 740 mmHg 48%
    03:00 -1°C° 0 mm 3 mps 740 mmHg 50%
    04:00 -1°C° 0 mm 3 mps 739 mmHg 52%
    05:00 -2°C° 0 mm 3 mps 739 mmHg 54%
    06:00 -2°C° 0 mm 4 mps 740 mmHg 55%
    07:00 -1°C° 0 mm 4 mps 740 mmHg 56%
    08:00 0°C° 0 mm 5 mps 740 mmHg 57%
    09:00 +2°C° 0 mm 5 mps 740 mmHg 54%
    10:00 +3°C° 0 mm 6 mps 741 mmHg 50%
    11:00 +5°C° 0 mm 6 mps 741 mmHg 46%
    12:00 +5°C° 0 mm 6 mps 740 mmHg 46%
    13:00 +5°C° 0 mm 6 mps 740 mmHg 45%
    14:00 +7°C° 0 mm 6 mps 740 mmHg 45%
    15:00 +7°C° 0 mm 5 mps 739 mmHg 44%
    16:00 +6°C° 0 mm 5 mps 739 mmHg 43%
    17:00 +6°C° 0 mm 5 mps 739 mmHg 43%
    18:00 +5°C° 0 mm 4 mps 739 mmHg 48%
    19:00 +3°C° 0 mm 3 mps 739 mmHg 53%
    20:00 +3°C° 0 mm 2 mps 739 mmHg 59%
    21:00 +2°C° 0 mm 2 mps 739 mmHg 63%
    22:00 +3°C° 0 mm 1 mps 739 mmHg 67%
    23:00 +2°C° 0 mm 1 mps 739 mmHg 72%

    30 March, Saturday

    Time Temperature Precipitation Wind Pressure Humidity
    00:00 +2°C° 0 mm 1 mps 739 mmHg 72%
    01:00 +2°C° 0 mm 1 mps 738 mmHg 72%
    02:00 -1°C° 0 mm 2 mps 738 mmHg 71%
    03:00 -1°C° 0 mm 2 mps 738 mmHg 70%
    04:00 -1°C° 0 mm 2 mps 738 mmHg 68%
    05:00 -1°C° 0 mm 2 mps 737 mmHg 67%
    06:00 0°C° 0 mm 3 mps 738 mmHg 63%
    07:00 +1°C° 0 mm 3 mps 738 mmHg 58%
    08:00 +3°C° 0 mm 3 mps 738 mmHg 54%
    09:00 +4°C° 0 mm 4 mps 738 mmHg 50%
    10:00 +6°C° 0 mm 5 mps 738 mmHg 47%
    11:00 +8°C° 0 mm 5 mps 738 mmHg 43%
    12:00 +9°C° 0 mm 6 mps 737 mmHg 42%
    13:00 +9°C° 0 mm 6 mps 736 mmHg 42%
    14:00 +10°C° 0 mm 6 mps 736 mmHg 41%
    15:00 +10°C° 0 mm 6 mps 735 mmHg 43%
    16:00 +10°C° 0 mm 6 mps 735 mmHg 44%
    17:00 +10°C° 0 mm 5 mps 734 mmHg 46%
    18:00 +8°C° 0 mm 4 mps 734 mmHg 52%
    19:00 +7°C° 0 mm 3 mps 734 mmHg 59%
    20:00 +7°C° 0 mm 1 mps 734 mmHg 65%
    21:00 +6°C° 0 mm 1 mps 734 mmHg 66%
    22:00 +6°C° 0 mm 1 mps 733 mmHg 68%
    23:00 +4°C° 0 mm 0 mps 733 mmHg 69%

    31 March, Sunday

    Time Temperature Precipitation Wind Pressure Humidity
    00:00 +5°C° 0 mm 1 mps 733 mmHg 69%
    01:00 +5°C° 0 mm 1 mps 732 mmHg 68%
    02:00 +4°C° 0 mm 2 mps 732 mmHg 68%
    03:00 +4°C° 0 mm 2 mps 732 mmHg 69%
    04:00 +4°C° 0 mm 2 mps 731 mmHg 69%
    05:00 +4°C° 0 mm 2 mps 731 mmHg 70%
    06:00 +5°C° 0 mm 2 mps 731 mmHg 68%
    07:00 +5°C° 0 mm 3 mps 731 mmHg 67%
    08:00 +7°C° 0 mm 3 mps 731 mmHg 65%
    09:00 +8°C° 0 mm 4 mps 731 mmHg 61%
    10:00 +11°C° 0 mm 4 mps 731 mmHg 56%
    11:00 +13°C° 0 mm 5 mps 731 mmHg 52%
    12:00 +13°C° 0 mm 5 mps 730 mmHg 50%
    13:00 +14°C° 0 mm 5 mps 730 mmHg 48%
    14:00 +14°C° 0 mm 5 mps 729 mmHg 46%
    15:00 +14°C° 0.1 mm 5 mps 729 mmHg 48%
    16:00 +13°C° 0.1 mm 4 mps 729 mmHg 49%
    17:00 +13°C° 0.1 mm 4 mps 729 mmHg 51%
    18:00 +11°C° 0 mm 3 mps 729 mmHg 57%
    19:00 +9°C° 0 mm 2 mps 729 mmHg 64%
    20:00 +9°C° 0 mm 1 mps 729 mmHg 71%
    21:00 +8°C° 0 mm 1 mps 728 mmHg 71%
    22:00 +8°C° 0 mm 1 mps 728 mmHg 72%
    23:00 +6°C° 0 mm 0 mps 728 mmHg 72%
    Show more